This is the latest recevied weather packets stored in our database for station/object N8QF. If no packets are shown the sender has not sent any weather packets the latest 10 day(s).
| Time | Temp. | Humidity | Pressure | Rain* | Wind** | Luminosity | Snow |
|---|---|---|---|---|---|---|---|
| 1777650741 | 9.44° C | 88% | 1012.1 hPa | 1.52 mm | - | - | - |
| 1777650441 | 9.44° C | 88% | 1012 hPa | 1.52 mm | - | - | - |
| 1777650140 | 10° C | 88% | 1012 hPa | 1.52 mm | - | - | - |
| 1777649840 | 10° C | 89% | 1012 hPa | 1.52 mm | - | - | - |
| 1777649540 | 10° C | 90% | 1012 hPa | 1.52 mm | - | - | - |
| 1777649240 | 9.44° C | 90% | 1012 hPa | 1.52 mm | - | - | - |
| 1777648939 | 9.44° C | 91% | 1012 hPa | 1.52 mm | - | - | - |
| 1777648638 | 8.89° C | 90% | 1012 hPa | 1.52 mm | - | - | - |
| 1777648338 | 8.89° C | 89% | 1011.9 hPa | 1.52 mm | - | - | - |
| 1777648039 | 8.33° C | 89% | 1011.8 hPa | 1.52 mm | - | - | - |
| 1777647737 | 8.33° C | 89% | 1011.8 hPa | 1.52 mm | - | - | - |
| 1777647136 | 8.89° C | 89% | 1011.6 hPa | 1.52 mm | - | - | - |
| 1777646834 | 8.33° C | 88% | 1011.6 hPa | 1.52 mm | - | - | - |
| 1777646534 | 8.33° C | 88% | 1011.8 hPa | 1.52 mm | - | - | - |
| 1777646234 | 8.33° C | 87% | 1011.7 hPa | 1.52 mm | - | - | - |
| 1777645934 | 8.89° C | 85% | 1011.6 hPa | 1.52 mm | - | - | - |
| 1777645632 | 8.89° C | 84% | 1011.5 hPa | 1.27 mm | - | - | - |
| 1777645332 | 8.89° C | 81% | 1011.5 hPa | 1.02 mm | - | - | - |
| 1777645030 | 9.44° C | 79% | 1011.5 hPa | 0.51 mm | - | - | - |
| 1777644729 | 9.44° C | 79% | 1011.4 hPa | 0.25 mm | - | - | - |
| 1777644429 | 9.44° C | 81% | 1011.3 hPa | 0.25 mm | - | - | - |
| 1777644128 | 9.44° C | 80% | 1011.2 hPa | 0.25 mm | - | - | - |
| 1777643828 | 9.44° C | 80% | 1011.3 hPa | 0.25 mm | - | - | - |
| 1777643528 | 9.44° C | 80% | 1011.2 hPa | 0.25 mm | - | - | - |
| 1777643228 | 9.44° C | 80% | 1011.3 hPa | 0.25 mm | - | - | - |
* Rain since midnight (hover to see other rain measurements)
** Current wind speed in m/s (hover to see current wind gust speed)